Terminal Aerodrome Forecast
Issued by NWS North Platte, NE

Home | Current Version | Previous Version | Graphics & Text | Print | Product List | Glossary On
Versions: 1 2 3 4 5 6 7 8 9 10 11 12 13 14 15 16 17 18 19 20 21 22 23 24 25 26
305
FTUS43 KLBF 121120
TAFVTN
TAF
KVTN 121120Z 1212/1312 01009KT P6SM OVC009
     FM121600 03009KT P6SM OVC015
     FM121900 05008KT P6SM OVC025
     FM130300 12009KT P6SM OVC025
      TEMPO 1306/1310 -SN OVC015=

USA.gov is the U.S. government's official web portal to all federal, state and local government web resources and services.